Regional Weather Roundup
Issued by NWS

Home | Current Version | Previous Version | Graphics & Text | Print | Product List | Glossary On
Versions: 1 2 3 4 5 6 7 8 9 10 11 12 13 14 15 16 17 18 19 20 21 22 23 24 25 26 27
000
ASUS45 KSLC 230110
RWRUT

UTAH REGIONAL WEATHER ROUNDUP
NATIONAL WEATHER SERVICE SALT LAKE CITY UT
600 PM MST SUN JAN 22 2017

UTZ001>011-023>025-230200-

NORTHERN UTAH

CITY           SKY/WX    TMP DP  RH WIND       PRES   REMARKS
BRIGHAM CITY     N/A     34  30  86 CALM      29.78F
HILL AFB       FLURRIES  32  28  86 S12       29.76R WCI  23
LOGAN          FLURRIES  31  30  96 SW5       29.76F WCI  26
OGDEN          CLOUDY    32  31  96 S8        29.77R WCI  25
SALT LAKE CITY CLOUDY    35  30  82 S22G30    29.76F WCI  23
TOOELE VALLEY  CLOUDY    41  30  65 S21G33    29.74S
WENDOVER       CLOUDY    30  28  93 CALM      29.74F
HEBER CITY     LGT SNOW  27  27 100 NW3       29.81F
WEST JORDAN    CLOUDY    32  32 100 S29G35    29.78F WCI  18

$$

UTZ011>015-024>027-230200-

CENTRAL/NORTHEAST UTAH

CITY           SKY/WX    TMP DP  RH WIND       PRES   REMARKS
PROVO AIRPORT  CLOUDY    34  26  72 SE13      29.82F WCI  25
MOAB/CANYONLAN CLOUDY    33  32  96 SE10      29.97F WCI  25
DELTA          CLOUDY    36  30  80 S18G24    29.80F WCI  25
PRICE          LGT SNOW  25  25 100 E5        29.93S VSB 3/4 WCI  19
RICHFIELD      CLOUDY    36  27  69 N1        29.83
ROOSEVELT      LGT SNOW  27  23  86 CALM      29.98F
VERNAL         LGT SNOW  22  20  92 SE3       29.96F VSB 1

$$

UTZ013>016-019>022-027-230200-

SOUTHERN UTAH

CITY           SKY/WX    TMP DP  RH WIND       PRES   REMARKS
BRYCE CANYON   SNOW      25  22  88 SE18      29.95R VSB 1/2 WCI  11
CEDAR CITY     CLOUDY    39  25  57 S23G46    29.81F SQUALL  WCI  28
MILFORD        CLOUDY    36  30  79 S12       29.83F WCI  28
ST GEORGE      CLOUDY    39  34  81 NE9G17    29.99F WCI  33
HANKSVILLE     CLOUDY    36  30  80 MISG      29.99R
KANAB          FOG       34  34 100 CALM      30.04S VSB 1/2
BLANDING       CLOUDY    28  28 100 E3        30.13S

$$

REGIONAL REPORTS     COLORADO/ARIZONA

CITY           SKY/WX    TMP DP  RH WIND       PRES   REMARKS
CRAIG, CO      CLOUDY    27  16  63 NE5       29.94S WCI  22
GRAND JUNCTION CLOUDY    37  23  56 S15G22    29.98F WCI  28
RIFLE, CO      CLOUDY    34  21  59 CALM      29.98F
MONTROSE, CO   CLOUDY    34  22  61 NE5       30.02F WCI  30
CORTEZ, CO     CLOUDY    30  26  85 CALM      30.08S
COLORADO CITY  LGT SNOW  34  34 100 E12       30.00F WCI  25
PAGE, AZ       CLOUDY    40  30  67 CALM      30.01S
GRAND CANYON   SNOW      30  29  96 SW18      30.04R VSB 1/2 WCI  18
KINGMAN, AZ    CLOUDY    46  24  42 S20G32    30.01S
FLAGSTAFF, AZ  FOG       28  28 100 SW14      30.06F VSB 1   WCI  17

$$

REGIONAL REPORTS    NEVADA/IDAHO/WYOMING

CITY           SKY/WX    TMP DP  RH WIND       PRES   REMARKS
LAS VEGAS, NV  LGT RAIN  46  40  79 CALM      29.92R
ELY, NY        CLOUDY    31  25  78 S28G38    29.66F WCI  17
ELKO, NV       LGT SNOW  33  30  88 W6        29.66S FOG     WCI  28
POCATELLO, ID  CLOUDY    34  27  75 S23G35    29.70F WCI  22
BURLEY, ID     CLOUDY    35  27  72 SW12G22   29.65F WCI  27
FORT BRIDGER,  LGT SNOW  18  18 100 SE8       29.80F WCI   7
EVANSTON, WY   LGT SNOW  22  19  89 E8        29.73F FOG     WCI  12
ROCK SPRINGS,  CLOUDY    27  15  61 S5        29.81F WCI  22

$$




USA.gov is the U.S. government's official web portal to all federal, state and local government web resources and services.